FW8133 Weather Reports


time (UTC)temp
C
wind
direction
speed
KPH
gust
KPH
rain 1hr
cm
rain 24hr
cm
rain mn
cm
humidity
%
barometer
mb
20260504120112 10 268 3.2 6.4 0.00 0.00 0.00 61 1012.9
20260504110543 7 222 3.2 6.4 0.00 0.00 0.00 70 1012.8
20260504100546 2 0 0.0 0.0 0.00 0.00 0.00 89 1012.4
20260504081551 2 0 0.0 0.0 0.00 0.00 0.00 90 1012.4
20260504081043 2 0 0.0 0.0 0.00 0.00 0.00 90 1012.4
20260504080543 2 0 0.0 0.0 0.00 0.00 0.00 90 1012.3
20260504050540 3 0 0.0 0.0 0.00 0.00 0.00 84 1012.2
20260504050120 3 0 0.0 0.0 0.00 0.00 0.00 83 1012.1
20260504045544 3 0 0.0 0.0 0.00 0.00 0.00 83 1012.1
20260504045044 3 0 0.0 0.0 0.00 0.00 0.00 83 1012.1
20260504044551 3 0 0.0 0.0 0.00 0.00 0.00 83 1012.0
20260504044042 4 0 0.0 0.0 0.00 0.00 0.00 83 1012.1
20260504043541 4 0 0.0 0.0 0.00 0.00 0.00 83 1012.1
20260504043057 4 0 0.0 0.0 0.00 0.00 0.00 82 1012.1
20260504042540 4 0 0.0 0.0 0.00 0.00 0.00 81 1012.0
20260504042044 4 0 0.0 0.0 0.00 0.00 0.00 81 1011.8
20260504041549 4 0 0.0 0.0 0.00 0.00 0.00 83 1011.7
20260504041043 4 0 0.0 0.0 0.00 0.00 0.00 83 1011.6
20260504040541 3 0 0.0 0.0 0.00 0.00 0.00 82 1011.7
20260504035543 3 0 0.0 0.0 0.00 0.00 0.00 83 1011.6
20260504035043 4 0 0.0 0.0 0.00 0.00 0.00 82 1011.6
20260504034553 4 0 0.0 0.0 0.00 0.00 0.00 82 1011.6
20260504034043 4 0 0.0 0.0 0.00 0.00 0.00 81 1011.6
20260504033541 4 0 0.0 0.0 0.00 0.00 0.00 81 1011.6
20260504033047 4 0 0.0 0.0 0.00 0.00 0.00 80 1011.5
20260504032542 4 0 0.0 0.0 0.00 0.00 0.00 80 1011.6
20260504032041 5 0 0.0 0.0 0.00 0.00 0.00 79 1011.6
20260504031610 5 0 0.0 0.0 0.00 0.00 0.00 80 1011.7
20260504031043 5 0 0.0 0.0 0.00 0.00 0.00 80 1011.6
20260504030541 4 0 0.0 0.0 0.00 0.00 0.00 80 1011.7
20260504030052 5 0 0.0 0.0 0.00 0.00 0.00 80 1011.7
20260504025544 5 0 0.0 0.0 0.00 0.00 0.00 79 1011.6
20260504025041 5 0 0.0 0.0 0.00 0.00 0.00 79 1011.6
20260504024553 5 0 0.0 0.0 0.00 0.00 0.00 79 1011.6
20260504024043 5 0 0.0 0.0 0.00 0.00 0.00 77 1011.8
20260504023540 5 0 0.0 0.0 0.00 0.00 0.00 77 1011.8
20260504023049 5 0 0.0 0.0 0.00 0.00 0.00 77 1011.7
20260504022547 5 0 0.0 0.0 0.00 0.00 0.00 76 1011.8
20260504022043 5 0 0.0 0.0 0.00 0.00 0.00 75 1011.7
20260504021552 5 0 0.0 0.0 0.00 0.00 0.00 74 1011.7
20260504021043 6 0 0.0 0.0 0.00 0.00 0.00 73 1011.6
20260504020542 6 0 0.0 0.0 0.00 0.00 0.00 72 1011.6
20260504020055 6 0 0.0 0.0 0.00 0.00 0.00 71 1011.7
20260504015543 6 0 0.0 0.0 0.00 0.00 0.00 72 1011.7
20260504015043 6 0 0.0 0.0 0.00 0.00 0.00 71 1011.7
20260504014553 7 0 0.0 0.0 0.00 0.00 0.00 67 1011.7
20260504014040 7 0 0.0 0.0 0.00 0.00 0.00 65 1011.6
20260504013544 7 0 0.0 0.0 0.00 0.00 0.00 62 1011.6
20260504013055 7 0 0.0 0.0 0.00 0.00 0.00 62 1011.6
20260504012544 7 0 0.0 0.0 0.00 0.00 0.00 63 1011.6
20260504012041 7 0 0.0 0.0 0.00 0.00 0.00 64 1011.6
20260504011553 8 0 0.0 0.0 0.00 0.00 0.00 63 1011.6
20260504011040 8 0 0.0 0.0 0.00 0.00 0.00 64 1011.5
20260504010540 8 0 0.0 0.0 0.00 0.00 0.00 61 1011.4
20260504010058 9 0 0.0 0.0 0.00 0.00 0.00 62 1011.4
20260504005544 10 0 0.0 0.0 0.00 0.00 0.00 60 1011.4
20260504005044 10 0 0.0 0.0 0.00 0.00 0.00 55 1011.3
20260504004554 10 0 0.0 0.0 0.00 0.00 0.00 54 1011.3
20260504004044 11 0 0.0 0.0 0.00 0.00 0.00 48 1011.1
20260504003541 11 0 0.0 0.0 0.00 0.00 0.00 47 1011.2
20260504003051 12 0 0.0 0.0 0.00 0.00 0.00 44 1011.2
20260504002544 12 0 0.0 0.0 0.00 0.00 0.00 44 1011.2
20260504002041 12 0 0.0 0.0 0.00 0.00 0.00 44 1011.1
20260504001607 12 0 0.0 0.0 0.00 0.00 0.00 46 1011.1
20260504001045 12 0 0.0 0.0 0.00 0.00 0.00 44 1010.9
20260504000544 12 0 0.0 0.0 0.00 0.00 0.00 41 1010.9
20260504000048 12 0 0.0 0.0 0.00 0.00 0.00 42 1010.8
20260503235544 12 0 0.0 6.4 0.00 0.00 0.00 40 1010.8
20260503235044 13 0 0.0 6.4 0.00 0.00 0.00 40 1010.7
20260503234549 13 295 1.6 9.7 0.00 0.00 0.00 40 1010.8
20260503234044 13 334 3.2 9.7 0.00 0.00 0.00 39 1010.6
20260503233542 13 269 3.2 11.3 0.00 0.00 0.00 38 1010.6
20260503233050 13 265 4.8 11.3 0.00 0.00 0.00 38 1010.4
20260503232543 13 314 4.8 9.7 0.00 0.00 0.00 38 1010.4
20260503232041 13 0 0.0 4.8 0.00 0.00 0.00 39 1010.3
20260503231551 13 0 0.0 4.8 0.00 0.00 0.00 38 1010.3
20260503231044 13 294 1.6 4.8 0.00 0.00 0.00 36 1010.2
20260503230548 13 294 1.6 6.4 0.00 0.00 0.00 36 1010.3
20260503230051 13 310 3.2 9.7 0.00 0.00 0.00 37 1010.3
20260503225543 13 265 3.2 9.7 0.00 0.00 0.00 36 1010.1
20260503225041 13 312 3.2 9.7 0.00 0.00 0.00 36 1010.2
20260503224551 13 321 3.2 9.7 0.00 0.00 0.00 37 1010.2
20260503224044 14 5 1.6 12.9 0.00 0.00 0.00 38 1010.1
20260503223541 14 282 4.8 12.9 0.00 0.00 0.00 35 1010.1
20260503223048 14 319 4.8 12.9 0.00 0.00 0.00 35 1010.1
20260503222544 14 233 3.2 14.5 0.00 0.00 0.00 35 1010.0
20260503222040 14 269 3.2 16.1 0.00 0.00 0.00 35 1009.9
20260503221550 14 309 3.2 16.1 0.00 0.00 0.00 35 1009.9
20260503221045 14 294 4.8 16.1 0.00 0.00 0.00 33 1009.9
20260503220540 14 313 3.2 12.9 0.00 0.00 0.00 32 1009.9
20260503220050 14 280 3.2 11.3 0.00 0.00 0.00 36 1009.9
20260503215544 14 288 3.2 16.1 0.00 0.00 0.00 35 1009.7
20260503215044 13 298 3.2 16.1 0.00 0.00 0.00 34 1009.8
20260503214555 13 296 3.2 12.9 0.00 0.00 0.00 34 1010.0
20260503214046 13 260 6.4 12.9 0.00 0.00 0.00 34 1009.7
20260503213544 13 262 4.8 12.9 0.00 0.00 0.00 34 1009.7
20260503213117 13 303 3.2 9.7 0.00 0.00 0.00 34 1009.6
20260503212545 14 266 3.2 14.5 0.00 0.00 0.00 34 1009.6
20260503212040 14 255 6.4 19.3 0.00 0.00 0.00 31 1009.6
20260503211617 14 236 4.8 19.3 0.00 0.00 0.00 31 1009.6
20260503211045 14 259 6.4 19.3 0.00 0.00 0.00 31 1009.5
20260503210543 14 273 4.8 19.3 0.00 0.00 0.00 31 1009.7
20260503210055 13 350 3.2 17.7 0.00 0.00 0.00 32 1009.8
20260503205541 13 312 8.0 17.7 0.00 0.00 0.00 31 1009.8
20260503205045 14 261 3.2 14.5 0.00 0.00 0.00 31 1009.7
20260503204603 14 264 4.8 16.1 0.00 0.00 0.00 31 1009.7
20260503204042 13 252 3.2 16.1 0.00 0.00 0.00 31 1009.7
20260503203545 13 288 6.4 19.3 0.00 0.00 0.00 31 1009.6
20260503203050 13 352 4.8 22.5 0.00 0.00 0.00 32 1009.9
20260503202541 13 239 8.0 22.5 0.00 0.00 0.00 31 1010.0
20260503202046 13 303 6.4 20.9 0.00 0.00 0.00 31 1010.0
20260503201553 13 258 8.0 17.7 0.00 0.00 0.00 31 1009.9
20260503201042 13 271 4.8 16.1 0.00 0.00 0.00 34 1009.8
20260503200541 13 324 6.4 16.1 0.00 0.00 0.00 35 1010.1
20260503200054 13 339 3.2 14.5 0.00 0.00 0.00 36 1009.9
20260503195544 13 315 4.8 14.5 0.00 0.00 0.00 32 1010.1
20260503195040 13 283 6.4 16.1 0.00 0.00 0.00 37 1010.1
20260503194548 13 328 8.0 16.1 0.00 0.00 0.00 34 1010.2
20260503194042 13 277 4.8 14.5 0.00 0.00 0.00 34 1010.2
20260503193542 13 283 6.4 19.3 0.00 0.00 0.00 35 1010.3
20260503193046 13 295 6.4 19.3 0.00 0.00 0.00 33 1010.4
20260503192543 13 333 4.8 14.5 0.00 0.00 0.00 33 1010.3
20260503192041 13 277 1.6 14.5 0.00 0.00 0.00 39 1010.4
20260503191601 13 279 4.8 14.5 0.00 0.00 0.00 35 1010.4
20260503191041 13 288 3.2 14.5 0.00 0.00 0.00 35 1010.6
20260503190542 13 244 3.2 17.7 0.00 0.00 0.00 37 1010.6
20260503190049 13 12 3.2 17.7 0.00 0.00 0.00 39 1010.6
20260503185541 12 263 4.8 14.5 0.00 0.00 0.00 36 1010.7
20260503185041 12 296 4.8 16.1 0.00 0.00 0.00 37 1010.8
20260503184605 13 270 6.4 16.1 0.00 0.00 0.00 35 1010.8
20260503184043 12 268 9.7 16.1 0.00 0.00 0.00 36 1010.8
20260503183544 12 298 4.8 16.1 0.00 0.00 0.00 36 1010.8
20260503183049 12 245 6.4 16.1 0.00 0.00 0.00 40 1011.0
20260503182541 12 310 6.4 17.7 0.00 0.00 0.00 36 1011.0
20260503182044 12 329 6.4 17.7 0.00 0.00 0.00 36 1011.1
20260503181551 12 276 8.0 17.7 0.00 0.00 0.00 37 1011.0
20260503181041 12 338 4.8 16.1 0.00 0.00 0.00 37 1011.0
20260503180542 12 287 6.4 16.1 0.00 0.00 0.00 38 1011.0
20260503180050 12 282 4.8 12.9 0.00 0.00 0.00 39 1011.0
20260503175544 11 265 4.8 12.9 0.00 0.00 0.00 39 1010.9
20260503175043 12 342 4.8 12.9 0.00 0.00 0.00 40 1011.0
20260503174603 11 296 4.8 12.9 0.00 0.00 0.00 40 1011.0
20260503174044 11 275 4.8 12.9 0.00 0.00 0.00 38 1011.2
20260503173544 11 281 3.2 12.9 0.00 0.00 0.00 44 1011.2
20260503173048 11 17 1.6 12.9 0.00 0.00 0.00 41 1011.3
20260503172540 11 284 4.8 17.7 0.00 0.00 0.00 41 1011.3
20260503172137 11 350 6.4 17.7 0.00 0.00 0.00 38 1011.4
20260503171554 11 350 0.0 16.1 0.00 0.00 0.00 43 1011.4
20260503171043 11 13 4.8 14.5 0.00 0.00 0.00 40 1011.5
20260503170541 11 352 4.8 14.5 0.00 0.00 0.00 43 1011.6
20260503150543 8 0 3.2 12.9 0.00 0.00 0.00 44 1012.0
20260503131045 7 285 3.2 12.9 0.00 0.00 0.00 57 1012.2
20260503130545 7 290 4.8 12.9 0.00 0.00 0.00 58 1012.2